Theta_e
302 303 307 307 306 294 298 301 297 299 300 299 294 296 296 293 289 290 293 292 293 295 299 300 302 304 308 316 320 322 323 324 325 325 326 327 329 330 332 333 334 334 335 336 337 337 338 339 340 340 341 343 344 345 345 346 347 348 349 350 350 350 350
301 305 304 307 308 302 297 296 299 301 303 302 296 288 289 288 285 286 289 293 290 293 292 301 299 302 305 311 317 320 322 323 323 325 326 327 328 330 332 333 334 335 335 336 337 338 339 339 340 341 342 343 344 345 346 346 347 347 349 350 350 350 349
301 303 302 301 305 308 303 300 304 300 290 293 294 292 287 284 283 283 286 291 292 291 293 296 298 299 301 309 314 318 320 321 323 324 326 327 329 330 331 332 333 334 335 335 336 337 339 340 341 342 343 344 344 345 346 346 346 348 349 350 350 351 350
298 300 298 292 297 303 307 303 302 302 297 295 291 294 290 290 283 286 285 290 291 295 296 297 300 301 301 309 312 315 318 320 323 324 326 327 328 329 331 332 333 335 335 336 336 337 338 339 340 342 343 344 344 345 346 346 347 348 349 349 350 349 350
299 293 295 295 297 296 298 299 297 298 299 297 299 294 292 290 283 282 283 286 289 293 297 299 301 301 301 308 313 315 318 320 323 325 326 327 328 329 331 332 334 335 335 336 337 338 339 340 342 343 343 344 344 345 345 346 346 346 347 348 349 349 350
291 294 299 299 298 298 298 298 296 298 296 292 291 290 294 292 291 283 283 287 291 295 303 303 302 303 302 306 313 315 318 320 322 325 327 328 328 330 331 333 334 335 336 336 337 338 339 339 340 342 343 344 344 344 345 346 346 346 346 347 349 349 349
292 296 300 303 303 303 302 299 298 300 298 294 292 287 289 293 293 295 290 287 293 299 302 304 305 305 305 305 310 314 318 319 322 324 327 328 329 330 331 332 334 335 336 337 337 337 338 339 340 341 343 343 344 344 345 346 346 346 347 347 348 349 349
295 298 301 302 303 303 301 300 300 299 298 298 297 295 291 292 290 293 289 289 291 298 305 304 305 305 305 305 310 313 317 320 322 323 325 327 328 330 332 333 334 335 336 337 337 337 337 338 339 340 342 343 344 345 345 346 345 346 347 347 348 348 348
289 295 296 297 300 300 296 295 297 299 301 300 297 296 294 294 292 294 288 288 293 297 312 308 309 308 306 304 307 314 315 319 322 323 325 327 328 329 330 331 333 334 335 336 336 337 337 338 339 341 342 343 343 344 345 345 346 347 347 348 347 347 348
280 284 284 284 286 290 293 296 299 301 298 299 295 294 292 290 293 294 292 293 294 297 300 302 302 304 304 306 305 309 315 318 321 323 325 327 328 329 330 331 332 333 334 336 337 337 338 338 339 340 341 342 343 344 345 346 346 346 347 348 347 347 347
282 285 287 291 294 291 289 293 295 295 298 300 299 294 290 291 290 292 295 296 295 299 302 302 303 301 303 304 304 305 309 316 322 324 326 327 328 328 329 331 332 334 334 335 336 337 338 338 339 340 341 342 343 344 344 346 347 347 347 348 348 347 347
288 290 290 292 293 289 290 290 291 295 297 299 297 295 294 294 292 289 294 296 297 299 302 302 301 302 302 303 304 305 309 315 321 324 326 336 328 329 330 331 331 332 334 335 336 337 338 338 340 341 342 343 343 344 344 345 346 347 347 347 347 347 347
290 291 291 291 291 291 291 292 294 295 298 299 297 296 296 297 296 293 295 296 296 300 302 303 301 302 305 307 308 308 311 317 322 324 325 327 327 328 329 330 332 332 333 334 336 337 337 338 339 340 341 342 343 344 345 346 347 346 347 347 347 347 347
288 289 290 291 291 293 294 295 296 298 299 299 300 299 297 299 296 298 297 298 298 301 303 303 305 304 305 307 313 313 316 320 323 324 324 326 327 328 329 330 331 333 334 335 336 337 337 338 338 340 341 342 343 344 344 346 346 347 347 347 347 347 347
286 289 291 293 292 291 291 294 297 302 302 300 300 299 298 300 300 300 298 298 299 302 302 302 305 309 311 314 315 316 317 320 323 323 325 326 327 328 330 330 331 333 334 335 336 336 337 337 338 340 341 342 343 344 345 346 346 348 348 347 347 347 347
283 288 289 290 291 291 291 294 299 301 303 296 296 296 300 299 297 298 300 298 297 302 303 309 311 311 314 314 314 315 316 319 323 323 324 326 327 328 329 331 332 332 333 334 335 336 337 338 338 339 340 341 342 343 345 346 347 349 348 348 347 347 348
282 287 289 289 289 292 292 295 297 299 305 307 309 310 311 310 305 298 297 297 301 306 309 310 311 308 309 312 314 315 316 318 322 323 325 326 327 328 330 331 332 332 333 334 336 337 338 338 339 340 341 341 342 343 345 347 349 349 349 349 348 348 348
281 286 288 290 291 288 290 299 303 302 302 306 306 306 308 310 311 305 307 306 312 312 307 308 308 308 309 311 316 315 318 319 321 323 325 326 328 329 330 331 331 332 334 335 336 337 338 339 340 341 342 342 343 344 346 348 348 349 349 349 349 349 349
280 285 288 292 287 289 300 305 303 303 304 304 307 309 311 311 312 312 312 313 314 315 310 307 308 313 327 332 333 333 328 319 320 322 323 325 327 328 329 329 331 331 333 334 335 336 338 339 340 341 342 344 344 345 346 347 348 349 350 350 349 350 349
285 284 285 280 288 298 299 304 305 305 305 305 304 308 312 312 312 312 311 314 315 316 314 313 313 321 328 333 334 334 336 327 321 320 322 324 326 326 328 329 329 330 332 333 334 336 339 341 340 341 341 344 345 346 347 347 348 349 350 350 350 351 350
279 285 284 283 292 295 301 299 300 300 298 300 299 298 309 312 312 313 312 315 316 318 319 321 319 319 325 329 331 338 337 337 327 323 324 323 324 325 326 329 329 331 333 334 336 338 338 339 340 340 342 344 346 347 347 348 348 349 350 350 351 351 352
288 282 282 282 286 287 295 299 303 306 306 307 306 303 306 314 314 315 314 315 317 318 320 322 325 322 326 324 328 336 340 342 341 341 340 339 335 332 332 333 331 332 333 336 340 338 337 338 340 341 343 344 345 346 348 348 348 349 349 350 352 353 353
284 283 280 280 281 287 298 298 303 306 309 308 308 304 304 313 313 314 315 317 318 319 321 322 326 324 323 323 329 337 340 343 346 345 346 346 345 343 340 338 338 339 339 341 344 343 339 339 342 344 345 346 346 346 348 348 349 349 349 350 352 353 355
284 284 282 280 287 284 296 301 305 308 311 310 307 297 300 310 312 313 315 317 319 320 323 325 327 327 324 326 332 339 340 341 343 345 346 346 347 348 349 349 348 349 351 349 347 347 346 346 348 347 349 349 349 348 348 349 349 349 350 351 353 355 357
285 286 284 286 287 301 303 303 308 311 311 309 299 293 303 312 312 313 314 316 319 321 323 326 326 329 334 336 339 340 340 340 340 343 345 347 348 347 348 350 356 350 351 351 350 350 350 350 349 346 349 349 351 351 350 350 349 351 352 353 354 354 356
282 283 282 283 290 302 305 307 312 311 307 297 296 308 316 312 311 314 314 314 316 319 323 325 327 330 335 339 339 338 338 337 338 340 341 343 345 348 354 356 352 349 348 348 348 349 350 352 351 349 346 348 348 348 349 350 352 354 354 354 354 353 354
287 286 283 285 281 296 308 309 310 307 300 299 308 312 315 314 312 311 313 314 316 318 319 324 326 328 330 332 335 336 337 338 338 338 339 340 341 343 345 346 350 348 346 345 346 346 348 350 351 351 350 350 349 345 342 346 347 347 349 351 352 353 353
284 285 285 286 295 301 311 308 299 304 305 310 311 311 309 313 312 312 311 312 316 319 318 320 322 325 328 329 331 333 335 337 339 340 340 341 342 343 345 346 346 347 343 344 344 344 345 348 349 350 350 350 350 345 345 346 346 347 346 349 350 351 352
290 288 293 299 301 309 310 311 309 310 310 311 312 311 311 310 311 314 311 311 313 318 317 319 320 321 324 326 329 331 332 335 337 338 339 340 341 342 342 344 346 344 342 341 342 342 343 344 347 348 349 349 349 347 347 348 348 347 346 347 349 350 352
297 298 299 302 304 306 308 310 311 310 310 311 312 311 309 310 310 311 309 312 313 316 318 317 319 319 321 324 326 329 332 334 335 338 338 339 340 341 342 342 343 342 341 341 341 340 340 342 344 348 346 346 345 344 348 351 350 348 346 345 346 349 351
290 287 298 296 297 306 307 308 310 309 310 310 312 311 311 310 310 310 311 312 314 314 318 317 318 318 319 322 324 326 329 332 333 334 335 336 337 338 339 342 342 339 340 339 339 339 339 339 341 344 344 345 342 343 345 349 353 348 345 345 347 348 350
289 291 295 297 299 304 308 308 307 307 307 309 311 314 313 312 313 312 312 313 314 315 315 316 317 316 317 319 321 324 326 328 332 332 333 333 336 337 338 340 340 337 337 336 336 336 336 334 337 341 343 343 344 344 344 347 350 348 347 346 345 346 349
292 294 296 299 299 302 302 307 309 312 309 309 310 311 311 311 311 312 313 314 315 316 315 316 316 316 314 318 320 322 324 325 327 331 332 333 332 333 336 337 340 337 336 336 334 335 335 334 336 338 339 341 343 344 345 346 347 347 347 348 345 343 346
287 288 293 296 290 291 295 301 304 303 311 309 308 309 309 311 311 312 312 313 316 316 317 314 315 315 316 317 319 320 322 324 325 328 330 332 333 334 333 334 335 336 338 335 335 336 335 337 337 338 339 340 342 344 345 346 347 346 348 346 345 344 347
287 293 296 297 296 295 296 299 304 304 306 311 307 307 307 309 310 312 313 311 314 314 314 314 314 314 315 316 319 320 321 323 325 327 329 330 332 334 335 334 335 334 335 338 337 337 336 336 336 336 337 338 340 342 343 344 345 342 347 346 344 344 348
294 296 296 297 296 294 296 300 303 303 306 309 309 308 309 308 308 310 310 310 313 313 313 313 315 314 315 316 319 319 320 323 324 327 330 331 331 334 334 333 333 334 335 335 334 334 332 334 334 335 336 338 339 341 342 342 342 339 342 344 343 343 346
293 297 298 298 297 297 299 300 300 304 308 308 308 310 309 308 309 310 308 307 311 314 312 311 313 315 315 315 318 320 320 322 326 331 333 334 335 332 332 333 332 332 332 332 331 331 330 333 335 335 335 337 338 340 341 341 341 339 340 341 342 341 343
Wind_Speed
12 12 8 8 11 11 7 8 14 13 7 6 3 4 1 2 2 13 1 4 4 7 5 4 4 7 12 16 20 21 20 19 17 15 16 16 16 16 17 18 18 19 17 17 17 18 17 17 18 19 19 19 20 18 18 19 19 17 18 18 17 16 15
8 11 7 9 13 6 5 10 11 4 3 2 5 7 1 4 8 8 1 11 2 5 9 2 4 6 10 13 17 21 21 19 19 18 18 18 19 19 21 21 20 19 18 19 17 17 19 20 20 20 20 19 18 18 19 20 18 19 18 17 17 16 16
7 6 7 8 9 13 12 8 9 11 7 12 8 2 10 6 5 3 4 2 5 8 5 3 6 8 8 12 15 16 17 16 19 20 21 21 21 18 17 16 13 14 16 18 19 19 19 19 19 19 18 18 16 16 18 19 21 20 19 16 15 14 15
10 11 4 12 10 9 16 6 11 8 5 8 8 10 2 2 4 1 7 1 11 6 6 8 9 10 11 12 11 14 18 18 17 17 18 19 18 17 17 16 16 18 19 19 20 19 19 19 18 17 18 16 18 18 17 17 17 16 16 16 15 15 15
7 5 4 9 11 10 9 10 8 6 5 2 5 0 5 6 4 4 2 6 7 7 6 9 12 10 10 14 15 15 15 16 18 20 19 18 19 18 18 18 18 18 18 18 18 18 17 16 15 15 16 18 18 16 17 17 18 17 17 17 16 15 14
5 8 7 1 2 2 4 9 10 9 9 5 12 10 1 5 3 4 3 11 5 9 5 10 9 9 9 12 15 15 16 18 19 18 19 19 18 19 19 19 19 18 18 18 16 15 13 14 15 17 16 16 17 17 17 17 16 16 18 17 15 14 13
10 18 20 16 17 13 10 5 9 10 5 4 7 9 7 3 7 4 3 3 12 7 7 11 12 11 10 12 12 13 14 17 19 20 21 20 21 21 20 19 19 18 18 18 18 18 18 19 18 18 17 17 17 17 17 16 17 18 17 17 15 14 14
12 17 15 17 14 9 8 6 6 9 12 9 10 8 5 6 2 6 4 7 9 5 3 6 6 6 4 5 13 15 14 15 17 20 19 20 18 18 19 18 17 17 17 15 13 15 16 16 16 17 16 16 16 16 17 16 18 19 17 16 15 14 14
8 12 3 2 7 6 5 5 9 9 10 12 3 4 1 8 9 9 7 14 12 4 2 2 1 2 4 5 9 12 14 14 16 17 14 15 17 18 18 17 16 15 13 14 15 17 17 16 16 16 16 17 16 17 16 17 17 17 16 14 14 15 15
5 10 8 1 8 9 12 9 9 7 7 12 7 10 3 10 6 8 8 14 9 8 4 6 5 2 5 6 11 12 15 16 15 14 15 16 17 16 17 17 15 17 17 17 16 16 16 16 17 16 16 16 16 16 17 17 17 16 16 14 15 16 15
8 9 11 14 8 10 8 15 14 18 15 12 10 6 6 12 4 8 12 9 6 12 14 11 13 7 7 9 6 11 12 12 13 14 16 16 16 16 17 16 16 16 15 17 18 18 17 17 16 16 16 17 16 16 17 17 16 16 16 15 16 16 15
11 11 13 20 15 15 18 16 19 20 15 11 10 13 14 6 9 11 3 3 8 15 17 14 9 9 8 8 8 9 13 13 14 14 15 16 16 15 14 14 16 17 18 18 18 18 17 16 16 15 15 16 17 17 17 16 15 15 13 14 15 14 14
11 16 17 17 14 13 13 15 17 20 19 11 10 13 6 11 11 12 4 5 8 14 17 15 7 7 10 12 12 14 15 10 9 11 13 15 16 16 16 16 17 18 17 17 18 18 18 17 17 17 15 15 14 14 14 14 14 16 15 15 15 15 14
14 18 13 12 10 10 13 15 16 17 18 18 13 11 6 14 7 7 8 8 14 15 15 10 12 7 6 6 2 2 3 7 11 13 14 16 15 17 18 18 18 18 19 19 19 19 17 18 18 16 15 15 16 16 16 16 16 15 14 14 15 14 15
14 14 9 7 8 10 14 16 12 13 15 15 13 9 8 7 2 2 4 7 12 10 4 6 4 4 2 3 5 9 12 11 12 14 15 15 16 17 18 18 19 18 18 17 15 16 17 18 19 18 17 17 15 15 14 15 15 14 14 14 14 15 15
11 7 7 15 16 14 11 8 11 16 10 4 3 4 2 5 8 4 3 3 8 8 5 4 2 3 3 8 8 7 6 8 12 14 14 14 15 16 17 18 18 16 15 14 15 17 18 18 18 16 15 14 15 16 15 15 14 13 14 14 15 15 15
10 7 11 17 16 11 4 4 11 13 11 8 7 11 13 9 4 7 11 10 2 6 9 5 2 2 3 3 5 5 5 6 12 15 15 16 16 17 17 17 16 16 17 17 19 19 17 17 17 17 16 15 16 16 15 13 13 14 15 15 15 15 15
7 12 15 13 2 2 3 2 9 13 8 13 15 8 9 11 9 1 2 6 9 9 7 5 5 4 1 0 2 1 3 8 9 10 12 15 16 16 16 16 17 17 15 14 15 18 18 19 19 17 15 16 14 12 12 12 14 14 14 14 14 15 14
6 9 13 1 4 7 0 3 7 13 9 12 4 10 13 14 16 16 11 9 11 10 7 3 2 1 2 6 11 9 6 3 5 10 12 12 14 15 15 13 12 13 15 15 14 13 13 13 11 11 10 10 8 10 12 14 14 14 15 15 15 15 15
3 5 3 1 8 5 11 10 4 14 3 7 12 4 18 16 15 12 10 13 12 10 4 5 3 4 3 8 13 12 10 3 6 5 7 10 11 12 12 15 14 12 13 14 16 16 13 11 11 12 13 12 12 13 12 13 13 14 14 15 15 14 15
2 3 4 6 8 14 5 3 8 14 10 13 10 6 9 14 13 14 12 14 13 10 6 6 7 6 8 10 12 15 13 10 2 5 2 1 6 8 9 13 14 14 15 15 15 11 11 13 14 13 12 13 13 12 12 13 13 13 14 14 15 15 15
3 4 5 5 2 6 2 1 10 7 7 9 8 6 2 12 16 14 13 12 13 12 12 11 8 7 6 14 9 14 14 11 8 8 9 9 7 6 6 5 7 6 5 5 5 9 12 13 14 12 12 13 12 12 13 12 13 13 14 15 14 14 14
5 5 1 2 2 6 2 13 17 17 9 7 8 4 5 10 16 17 15 14 13 12 12 12 11 2 9 2 7 9 11 12 10 12 11 11 10 8 6 9 10 9 9 9 8 6 5 5 4 6 9 11 12 12 12 13 13 14 15 15 14 14 14
6 5 3 3 4 5 9 17 18 18 17 13 3 4 5 11 16 16 16 15 15 15 15 10 7 10 12 5 5 8 9 9 11 12 11 12 14 12 12 10 9 10 11 12 10 9 7 5 5 9 10 11 12 12 12 12 13 15 15 15 14 13 14
7 8 6 4 4 2 8 15 18 18 17 5 5 5 5 11 13 15 14 14 15 12 12 10 9 8 8 7 5 7 8 12 14 13 12 11 12 14 13 12 13 13 12 13 12 10 6 4 3 6 9 10 11 10 10 11 14 15 13 11 12 13 13
5 3 3 6 6 1 7 16 13 15 5 7 6 5 7 10 12 12 12 13 16 14 13 10 9 8 9 8 9 12 12 11 10 11 11 11 13 12 13 13 12 12 12 12 12 10 7 8 7 5 6 7 7 7 8 13 15 11 9 11 12 11 13
2 2 5 1 3 2 12 18 7 16 7 5 6 7 7 10 10 12 12 11 11 13 14 13 9 11 12 12 11 11 11 13 14 12 13 12 10 11 12 14 10 12 12 13 12 9 7 8 8 6 8 7 4 3 4 5 2 1 4 5 7 10 11
2 0 1 1 4 6 9 9 6 5 7 4 7 8 9 10 10 12 11 12 12 13 14 15 13 11 12 13 11 11 11 11 11 12 11 10 9 10 10 10 9 11 12 10 11 10 9 9 9 9 9 7 4 3 1 2 2 3 4 6 6 7 9
3 2 2 3 3 1 4 5 5 5 9 9 9 10 9 11 12 13 10 13 14 13 15 14 11 13 14 12 12 11 10 9 11 11 11 10 9 8 9 10 8 9 11 11 11 12 10 10 9 8 7 7 6 6 4 3 2 3 4 6 8 9 9
6 9 7 2 3 2 5 6 5 7 10 8 10 10 9 10 11 12 12 13 13 13 14 13 10 12 11 14 14 13 11 10 9 8 9 9 9 9 8 9 9 9 10 10 11 11 10 8 8 6 6 7 7 4 4 4 3 2 4 6 6 8 8
7 1 5 11 7 3 2 3 5 7 10 7 6 6 7 9 11 13 15 13 13 13 11 16 13 13 15 15 15 13 12 11 10 10 9 8 7 7 9 7 7 8 8 10 10 10 9 6 6 5 5 4 3 2 4 6 5 1 3 5 6 7 8
6 6 11 12 11 1 5 4 2 1 8 6 2 2 5 5 6 8 12 13 14 14 14 16 16 11 11 14 15 13 12 12 11 10 9 8 7 7 6 5 6 7 9 8 8 7 6 4 4 4 5 4 4 4 3 3 5 2 2 4 5 6 8
10 11 6 5 5 5 4 4 1 1 4 6 3 3 4 5 9 10 11 11 10 12 13 15 18 16 13 11 12 12 12 12 11 11 10 8 6 5 6 5 6 6 5 7 5 6 4 2 2 3 4 3 4 5 4 3 3 1 3 3 4 4 4
7 6 3 6 6 5 7 4 3 4 4 6 3 1 3 3 4 5 7 10 9 8 9 11 12 14 14 14 11 10 10 11 12 12 11 9 8 7 4 3 5 6 6 6 6 6 5 6 6 7 6 6 6 5 5 4 4 2 1 1 3 3 4
10 10 6 6 9 10 10 6 1 6 4 4 3 2 2 4 3 2 3 6 6 8 9 8 9 12 11 12 13 12 9 10 11 11 10 10 10 8 7 5 6 6 6 6 6 7 6 5 6 6 6 6 7 6 5 4 4 3 0 1 1 2 3
19 18 14 11 10 12 10 2 1 4 4 2 3 5 3 2 4 5 7 6 5 3 6 8 8 9 11 9 9 11 10 8 11 11 10 10 8 6 5 5 5 7 7 6 5 4 3 4 4 5 5 6 6 6 6 5 4 3 1 2 2 3 4
17 13 10 12 13 16 13 9 7 2 1 3 1 3 4 0 3 3 7 10 7 5 6 8 10 10 11 11 8 7 8 6 6 7 7 6 6 4 3 3 3 2 1 1 0 0 2 3 4 4 4 4 4 5 5 4 3 3 1 2 3 3 4
Wind_Direction
203 208 181 200 170 208 187 171 210 214 90 166 244 279 268 104 103 239 124 292 285 302 330 222 124 170 200 196 202 203 202 200 196 197 199 203 201 197 196 198 196 194 190 190 190 190 187 185 185 185 184 184 184 183 184 187 188 187 188 188 189 191 192
264 224 190 199 196 154 116 197 212 81 124 138 185 218 289 194 204 253 275 232 274 184 239 269 123 152 200 193 203 204 200 192 193 197 195 198 199 198 200 200 195 190 189 187 189 190 189 188 187 185 185 184 184 184 184 186 187 188 190 189 190 190 190
282 306 216 231 222 193 211 222 126 177 168 208 200 148 235 223 227 264 289 251 233 192 233 203 191 178 194 202 202 204 205 193 196 197 197 199 198 198 199 199 190 190 191 189 190 191 191 190 186 186 184 181 183 186 187 186 188 189 188 189 191 191 190
322 311 189 215 214 217 215 126 178 167 156 211 172 204 155 136 254 233 284 279 236 199 205 188 202 198 186 189 199 206 203 193 195 200 198 198 195 196 196 193 193 193 192 191 190 189 188 187 186 184 182 182 184 186 186 190 191 188 187 189 189 191 192
319 243 195 213 206 196 209 203 197 189 208 207 187 222 169 197 186 205 198 265 258 252 216 180 195 209 190 181 192 200 203 199 196 196 196 195 195 195 194 193 193 193 192 191 191 190 188 185 183 180 182 184 186 184 186 188 187 187 189 192 191 194 188
303 261 262 12 1 302 242 206 215 203 185 147 185 233 72 146 188 220 168 255 282 264 192 192 198 207 189 192 188 197 200 197 197 200 198 192 193 195 195 193 192 191 191 190 186 183 179 179 182 184 184 184 184 186 187 186 187 189 190 192 193 191 190
274 268 272 290 289 276 264 255 227 206 201 140 176 211 233 179 221 132 170 256 262 237 202 198 202 205 201 193 194 196 200 201 199 198 197 195 191 192 194 193 191 189 189 187 182 179 181 183 184 184 183 185 186 186 185 186 187 191 191 191 191 188 190
264 263 254 258 256 250 280 254 235 201 212 202 216 204 178 184 228 211 259 261 265 286 204 231 233 238 226 165 192 196 202 201 201 202 199 191 192 196 195 191 189 188 187 181 175 178 179 182 183 184 185 185 185 186 186 185 190 191 191 190 188 188 191
321 295 12 301 28 38 41 332 309 291 238 211 219 97 167 198 205 191 170 241 255 274 311 220 291 306 255 199 210 206 205 206 203 199 194 193 193 191 190 187 186 182 176 176 183 183 183 183 183 183 185 186 185 186 185 187 192 190 189 187 187 189 190
241 218 212 106 343 333 313 294 286 298 288 226 178 208 185 210 229 172 200 240 257 269 302 298 282 298 283 239 229 218 210 203 200 190 186 189 192 193 188 185 177 176 180 184 184 184 184 183 182 184 185 186 186 186 188 189 188 187 188 186 189 189 192
258 286 288 280 272 297 287 291 302 295 293 293 234 141 167 209 188 189 227 229 280 277 264 256 262 251 265 278 233 225 220 214 201 184 182 186 188 187 184 180 180 179 178 182 184 185 186 184 183 183 184 185 186 187 189 189 188 187 186 186 189 191 191
249 268 283 285 282 272 273 276 281 281 280 279 265 209 214 145 117 230 265 156 223 250 258 255 256 268 268 260 249 226 220 205 185 184 182 181 183 182 179 177 175 178 182 183 184 186 186 186 185 184 185 185 186 187 188 188 185 184 184 186 189 190 190
287 278 279 277 269 251 255 263 262 272 275 267 248 241 209 147 201 220 223 187 212 245 247 253 246 250 254 249 226 214 211 198 166 166 177 180 180 176 175 178 178 182 182 182 184 184 186 183 183 184 184 186 186 188 188 186 184 187 183 184 186 188 190
297 288 283 267 252 273 278 271 274 268 263 262 247 244 209 184 200 188 191 185 217 231 246 243 245 259 257 254 267 320 180 174 169 171 178 180 178 175 179 179 182 184 185 183 184 183 181 182 185 184 186 187 187 187 187 184 186 184 177 184 184 187 193
300 292 279 272 300 308 296 285 277 290 269 249 243 228 208 202 161 151 207 196 236 252 240 259 286 294 264 224 197 199 198 176 174 176 180 181 179 180 181 179 183 186 185 184 179 179 182 185 185 186 189 189 186 186 185 184 184 180 178 181 185 188 194
299 304 342 320 322 315 271 272 329 340 337 194 187 162 305 199 192 165 119 209 254 277 310 276 315 350 232 206 201 199 206 188 174 177 179 179 180 180 181 183 185 183 178 173 176 182 187 188 188 188 187 185 184 190 185 184 181 175 178 182 186 190 193
260 282 326 320 315 303 316 340 3 331 2 358 80 57 43 17 268 160 199 226 231 314 303 274 277 341 306 255 207 182 200 200 181 179 181 181 180 181 182 184 183 179 177 179 182 185 185 186 188 192 187 184 191 189 184 179 172 178 182 184 187 191 192
278 320 316 302 308 152 231 196 36 351 9 22 48 50 28 10 28 321 253 255 293 300 308 265 214 209 260 253 324 284 201 190 191 195 185 181 181 181 183 184 181 182 183 181 184 184 185 188 190 188 187 190 191 182 175 173 179 179 182 186 188 192 192
290 308 316 330 131 212 295 346 68 358 339 19 351 66 39 20 14 5 349 338 323 309 252 246 296 321 111 63 45 16 339 247 225 193 184 184 181 180 180 182 185 183 180 178 179 183 188 186 181 177 184 184 170 174 181 183 181 181 185 187 189 192 193
300 336 310 11 203 283 313 292 338 346 359 16 351 24 25 21 14 354 337 330 318 300 354 11 335 254 277 56 40 22 353 313 196 190 193 188 180 178 178 178 180 175 178 178 178 185 181 172 178 181 182 174 176 185 182 184 184 186 187 190 192 192 194
214 236 320 238 298 316 337 2 358 359 335 331 350 344 13 10 1 359 339 328 332 334 359 335 296 282 278 35 13 9 355 349 334 146 124 182 186 176 178 177 179 179 178 178 180 168 167 177 178 184 175 175 180 177 182 189 186 189 189 193 195 193 195
184 1 330 331 7 236 254 123 305 276 253 283 282 277 299 1 359 355 350 341 336 343 355 337 310 285 45 25 354 350 355 356 40 64 82 83 79 95 105 90 98 105 101 98 127 164 174 180 184 177 171 173 172 178 186 186 187 192 193 198 196 193 195
339 330 316 254 268 262 353 324 321 309 306 283 293 198 55 359 353 351 348 348 349 1 358 339 327 132 63 1 1 343 359 10 28 66 68 81 81 78 91 121 124 121 125 128 124 112 127 147 147 151 166 168 172 182 185 187 190 194 198 198 195 193 194
236 256 275 282 219 269 323 326 321 310 314 320 297 90 42 352 346 348 346 352 358 2 5 340 15 69 109 66 7 352 5 21 32 50 60 72 80 79 82 75 94 102 108 104 100 109 121 153 169 158 157 167 180 185 189 189 192 201 202 199 194 191 193
236 234 254 272 316 285 323 316 313 311 304 286 64 69 10 332 344 346 348 356 357 352 9 0 51 29 61 69 50 27 26 40 36 39 47 56 73 81 82 86 88 87 84 89 93 91 92 83 102 150 156 164 178 183 182 190 204 207 203 194 189 191 191
246 236 259 237 237 251 324 325 317 312 319 52 50 357 346 337 347 341 352 358 2 354 8 6 23 42 51 56 50 41 37 45 45 40 38 44 58 65 76 77 81 90 88 89 89 80 72 68 65 85 135 161 172 172 180 197 208 208 191 191 192 189 189
207 210 243 319 329 302 6 323 325 2 57 5 320 317 356 338 349 349 352 4 358 5 1 348 359 30 39 40 38 40 35 39 40 34 34 33 37 54 65 69 68 82 82 77 76 81 72 70 67 74 87 92 104 128 181 235 266 182 184 185 188 188 189
265 171 51 177 317 331 355 358 55 51 70 327 352 360 350 350 1 356 348 355 3 4 7 348 355 18 32 34 28 31 32 34 40 39 37 32 31 45 59 74 77 81 82 79 74 65 61 59 56 52 64 73 87 104 170 264 231 209 173 173 174 184 192
315 300 281 302 346 34 14 35 83 81 60 30 2 12 6 2 2 347 356 349 351 7 6 343 339 21 20 28 25 31 21 26 34 39 32 31 30 35 49 59 65 71 79 78 71 60 51 52 54 57 57 68 58 38 340 316 272 198 189 178 178 187 192
272 268 256 37 48 48 48 43 54 66 54 25 22 5 10 4 358 350 347 341 342 2 5 344 345 17 13 24 20 19 15 18 20 28 33 28 26 30 39 46 48 60 64 66 68 65 51 46 52 54 54 54 47 356 324 336 316 222 183 176 188 195 189
338 273 51 351 339 124 110 89 44 62 75 41 26 351 358 15 1 352 338 338 343 352 4 350 349 5 15 20 17 12 11 12 10 12 18 22 28 32 37 37 49 50 57 58 58 60 53 31 42 46 55 57 68 17 1 334 332 268 183 192 191 188 190
295 290 334 316 308 129 149 115 44 129 93 86 108 15 6 22 10 348 332 334 348 351 3 352 343 352 10 16 15 9 6 1 0 4 5 4 9 17 35 34 52 55 59 61 60 59 51 16 24 38 36 30 21 15 24 356 336 309 201 199 202 200 194
297 298 283 289 311 204 119 85 105 281 120 113 95 31 354 22 21 359 336 337 342 349 358 359 338 338 355 22 15 8 1 354 352 351 354 355 357 0 20 25 49 59 59 62 62 62 43 22 27 52 35 15 11 15 6 8 351 319 234 222 209 206 198
278 256 284 31 347 311 308 4 335 15 121 109 86 49 360 7 38 349 327 320 330 351 2 357 329 335 337 354 12 12 0 350 340 339 343 348 351 351 355 34 47 51 51 57 50 40 22 13 17 16 14 1 359 1 360 4 4 358 260 220 200 196 178
269 269 275 309 298 283 273 274 333 5 7 133 113 91 41 324 341 337 311 304 312 346 351 349 337 330 333 342 353 357 8 347 336 329 338 338 342 344 349 20 28 42 35 35 39 36 19 16 21 10 5 354 348 349 354 3 13 1 97 145 173 163 160
276 276 288 289 272 266 283 280 11 7 352 355 160 144 99 303 329 0 349 304 300 330 336 331 332 324 324 340 356 344 343 351 340 333 335 332 327 331 349 10 27 37 30 26 26 11 358 25 30 16 7 1 350 341 348 356 12 11 66 139 146 160 154
272 286 290 290 295 292 293 302 302 298 10 329 262 173 157 116 345 21 11 327 322 319 328 331 325 333 329 332 346 335 328 327 327 323 322 316 325 330 339 20 30 48 53 176 193 129 60 60 51 37 31 2 354 349 354 355 11 9 9 123 126 128 135